Tracking 20945 objects as of 8-Jul-2020
HD Live streaming from Space Station
objects crossing your sky now

SL-12 R/B(2)

Track SL-12 R/B(2) now!


NORAD ID: 26486
Int'l Code: 2000-051D
Perigee: 1,834.4 km
Apogee: 51,138.6 km
Inclination: 62.7 °
Period: 987.9 minutes
Semi major axis: 32857 km
RCS: 27.9141 m2 (large)
Launch date: September 5, 2000
Source: Commonwealth of Independent States (former USSR) (CIS)
Launch site: TYURATAM MISSILE AND SPACE COMPLEX (TTMTR)

Note: This is a ROCKET BODY
aabbcc
Your satellite tracking list
Your tracking list is empty




NASA's NSSDC Master Catalog

Two Line Element Set (TLE):
1 26486U 00051D   20189.47337323 -.00000201 +00000-0 +00000-0 0  9998
2 26486 062.7463 051.3902 7502726 268.8990 010.8464 01.45764236105598
Source of the keplerian elements: AFSPC